Flag for United Kingdom Weather past 2 weeks in Edinburgh, Scotland, United Kingdom

Now
72 °F

Sunny.


Feels Like: 76 °F
Forecast: 54 / 65 °F
Wind: 10 mph from Northeast

Location: Edinburgh Airport

Current Time: Jul 26, 2014 at 2:16:01 PM

Latest Report: Jul 26, 2014 at 1:20 PM


Visibility: 10 mi

Pressure: 29.98 "Hg

Humidity: 61%

Dew point: 57 °F

Location of EdinburghLocation

Historic Weather in Edinburgh — Graph

°F

Edinburgh temperature yesterday

Maximum temperature yesterday: 73 °F (at 1:20 PM)
Minimum temperature yesterday: 55 °F (at 12:50 AM)
Average temperature yesterday: 62 °F

Past Weeks' High & Low Weather Summary

 TemperatureHumidityPressure
High75 °F (Jul 22, 2:50 PM)100% (Jul 12, 4:50 AM)30.30 "Hg (Jul 12, 4:50 AM)
Low48 °F (Jul 12, 4:20 AM)50% (Jul 17, 4:50 PM)29.65 "Hg (Jul 14, 5:50 PM)
Average61 °F82%30.00 "Hg
* Reported Jul 11 12:20 PM — Jul 26 12:50 PM, Edinburgh, Weather by CustomWeather, © 2014

Note: Actual official high and low records may vary slightly from our data, if they occured in-between our weather recording intervals... More about our weather records

Advertising

Edinburgh weather history for previous 24 hours

 ConditionsComfort  
Time TempWeatherWind HumidityBarometerVisibility
12:50 PM
Jul 26
72 °FSunny.8 mph65%29.98 "Hg10 mi
12:20 PM73 °FSunny.9 mph65%30.01 "Hg10 mi
11:50 AM72 °FSunny.8 mph69%30.01 "Hg10 mi
11:20 AM72 °FSunny.7 mph69%30.04 "Hg10 mi
10:50 AM72 °FPassing clouds.5 mph73%30.04 "HgN/A
10:20 AM68 °FSunny.5 mph78%30.04 "Hg10 mi
9:50 AM66 °FSunny.2 mph83%30.04 "Hg10 mi
9:20 AM66 °FClear.2 mph83%30.04 "Hg5 mi
8:50 AM63 °FHaze.2 mph88%30.04 "Hg3 mi
8:20 AM63 °FFog.2 mph94%30.04 "Hg2 mi
7:50 AM61 °FFog.2 mph94%30.04 "Hg1 mi
7:20 AM59 °FFog.No wind100%30.04 "Hg1 mi
6:50 AM57 °FFog.No wind100%30.04 "Hg0 mi
6:20 AM55 °FFog.2 mph100%30.04 "Hg2 mi
5:50 AM52 °FFog.No wind100%30.07 "Hg2 mi
5:20 AM52 °FFog.No wind100%30.07 "Hg2 mi
4:50 AM52 °FLight fog.No wind100%30.07 "Hg4 mi
4:20 AM54 °FFog.No wind100%30.07 "Hg4 mi
3:50 AM54 °FClear.No wind94%30.07 "Hg10 mi
3:20 AM52 °FClear.No wind100%30.07 "Hg10 mi
2:50 AM52 °FClear.2 mph100%30.07 "Hg10 mi
2:20 AM55 °FClear.No wind94%30.07 "Hg10 mi
1:50 AM57 °FClear.2 mph94%30.09 "Hg10 mi
1:20 AM57 °FClear.2 mph100%30.09 "Hg10 mi
12:50 AM57 °FClear.No wind94%30.09 "Hg10 mi
12:20 AM57 °FClear.5 mph94%30.09 "Hg10 mi
11:50 PM
Jul 25
57 °FClear.3 mph94%30.09 "Hg10 mi
11:20 PM57 °FClear.5 mph100%30.09 "Hg10 mi
10:50 PM57 °FClear.6 mph100%30.09 "Hg10 mi
10:20 PM57 °FCool.6 mph100%30.09 "HgN/A
9:50 PM59 °FSunny.6 mph94%30.09 "Hg10 mi
9:20 PM61 °FSunny.5 mph94%30.09 "Hg10 mi
8:50 PM61 °FSunny.8 mph94%30.09 "Hg10 mi
8:20 PM63 °FSunny.9 mph88%30.09 "Hg10 mi
7:50 PM63 °FPassing clouds.8 mph88%30.09 "HgN/A
7:20 PM64 °FPassing clouds.10 mph83%30.09 "HgN/A
6:50 PM64 °FPassing clouds.9 mph83%30.09 "HgN/A
6:20 PM66 °FFog.8 mph78%30.09 "HgN/A
5:50 PM66 °FPassing clouds.8 mph83%30.09 "HgN/A
5:20 PM70 °FPassing clouds.10 mph69%30.09 "HgN/A
4:50 PM72 °FSunny.10 mph65%30.09 "Hg10 mi
4:20 PM72 °FSunny.10 mph65%30.09 "Hg10 mi
3:50 PM73 °FPassing clouds.12 mph57%30.12 "HgN/A
3:20 PM73 °FSunny.10 mph57%30.12 "Hg10 mi
2:50 PM73 °FPassing clouds.9 mph57%30.12 "HgN/A
2:20 PM73 °FMild.10 mph57%30.12 "HgN/A
Weather by CustomWeather, © 2014

See weather overviewHow to use our weather pages